Vorticity
0 0 5 3 3 4 5 5 1 3 4 10 9 7 5 4 7 6 5 3 2 1 6 7 6 5 6 6 6 6 5 6 7 8 9 8 8 9 8 7 5 4 5
3 3 6 4 5 5 7 1 5 5 9 8 6 5 6 7 5 4 2 5 1 6 5 4 6 7 8 8 7 6 6 7 6 7 8 7 8 8 8 9 8 6 4
2 6 1 2 6 5 4 6 8 10 6 5 6 7 8 8 7 6 4 3 2 4 7 8 8 7 5 5 7 7 7 9 9 8 6 6 6 7 7 7 8 8 7
0 -2 2 6 5 1 4 10 9 5 5 5 5 7 5 -2 4 5 -1 2 3 3 8 6 8 6 7 7 7 8 9 8 9 10 10 8 8 7 8 7 5 3 6
4 5 6 5 -0 1 7 8 5 5 4 5 7 7 12 7 5 -10 -3 0 -1 11 7 7 7 7 8 9 8 7 10 7 7 7 7 8 8 7 7 6 8 9 12
5 6 3 4 2 2 7 7 5 4 4 7 3 8 8 8 -5 -2 11 -3 5 5 8 6 8 8 9 7 8 9 7 9 7 4 2 4 5 5 5 7 6 6 6
6 4 -1 6 4 2 6 6 6 4 3 7 4 -3 1 10 15 8 -1 -3 4 11 7 8 10 10 7 9 7 8 9 9 2 3 3 0 3 2 3 6 8 9 11
4 3 4 5 6 2 8 6 5 2 -2 6 -2 5 1 13 11 3 -0 4 9 6 7 7 7 10 9 9 8 8 7 4 6 5 5 5 4 4 3 5 7 7 8
5 8 2 1 8 2 7 4 3 6 1 -0 9 1 4 5 6 4 3 4 6 3 5 9 10 9 6 7 7 6 4 5 5 4 6 7 6 7 6 8 10 8 7
5 4 7 13 6 2 5 4 4 4 3 4 -2 7 11 17 4 -8 -1 9 6 4 7 6 7 9 6 8 8 6 6 5 6 6 7 7 8 8 7 9 10 11 12
9 0 22 1 5 5 3 4 2 7 2 2 -3 -1 5 1 2 9 6 6 8 11 13 8 8 8 4 7 7 6 6 7 7 6 7 8 10 9 10 12 11 12 15
8 -11 0 14 8 4 3 2 4 4 5 5 0 21 3 -5 16 12 8 8 7 12 10 10 10 7 8 7 7 6 4 7 6 7 8 13 12 9 12 11 12 15 16
11 11 3 2 14 8 2 5 5 3 5 5 9 3 17 7 7 6 7 7 9 10 9 9 10 7 10 8 6 6 7 5 8 9 12 12 10 13 12 12 13 16 17
-7 13 12 -1 16 6 4 7 4 5 3 5 -3 -3 -1 4 4 7 9 10 10 8 8 10 11 9 11 12 9 6 4 6 5 10 9 11 10 16 14 11 14 17 17
10 11 11 13 26 1 6 8 6 4 4 12 18 16 4 11 7 12 11 9 6 7 8 7 8 9 7 9 6 6 8 8 7 7 7 10 9 15 17 11 12 13 11
9 15 12 19 5 11 8 10 -7 6 18 5 5 6 10 5 13 10 7 11 9 8 7 8 7 7 8 9 11 13 16 2 2 14 4 -1 7 11 21 11 13 10 11
9 9 30 18 18 10 8 13 22 18 12 -9 4 6 10 15 7 8 11 8 7 7 5 5 6 7 5 9 11 11 6 16 -1 15 13 5 22 21 21 12 13 11 11
1 6 24 -2 25 -14 26 -10 12 3 11 7 4 9 10 13 7 10 7 7 7 7 7 4 7 6 8 14 6 5 4 13 8 29 -3 24 9 8 19 19 10 11 9
6 13 8 1 27 13 -26 -7 15 4 13 9 10 12 11 9 8 7 7 6 6 7 7 4 3 8 11 9 4 4 20 14 38 22 10 10 3 2 -8 31 11 11 11
9 -0 6 8 10 20 17 16 21 9 5 7 13 11 10 7 7 6 6 6 7 8 9 8 10 13 15 13 13 15 12 12 11 7 8 2 12 3 6 26 13 12 10
7 11 -19 46 29 -10 17 9 5 6 14 14 11 8 7 7 6 7 7 8 7 6 8 9 13 16 14 19 24 21 13 21 6 5 3 -0 6 8 21 18 10 9 9
-3 9 34 -12 10 13 7 5 11 11 11 9 7 7 6 6 6 8 7 6 7 7 8 10 12 16 8 9 11 21 14 10 -9 10 6 6 21 17 15 12 10 11 12
9 13 -1 6 6 14 4 11 5 11 9 7 7 6 6 8 8 7 6 6 7 11 15 14 13 7 3 14 -5 17 19 11 15 17 8 7 14 14 15 14 13 13 12
1 -6 9 11 10 4 6 4 12 10 6 8 8 7 8 8 9 7 6 6 9 12 16 16 24 19 13 14 7 13 14 12 9 11 13 12 19 16 17 13 10 10 10
16 -6 11 5 7 8 8 9 9 7 7 8 6 8 9 9 7 6 6 7 8 14 18 18 19 27 9 20 17 8 16 17 8 11 12 11 19 14 11 12 13 12 12
8 9 2 13 11 5 9 10 10 9 9 5 7 9 9 8 8 7 7 9 10 15 14 19 22 28 28 15 6 10 19 9 9 6 18 7 16 14 12 10 11 8 8
Height
3150 3151 3155 3157 3159 3162 3162 3163 3164 3164 3165 3165 3164 3164 3165 3164 3162 3163 3162 3161 3160 3158 3156 3155 3154 3152 3150 3148 3146 3144 3142 3141 3139 3138 3136 3135 3134 3133 3132 3131 3129 3129 3128
3148 3151 3153 3156 3158 3159 3160 3161 3161 3163 3163 3162 3162 3162 3162 3162 3161 3156 3159 3158 3157 3155 3153 3150 3148 3146 3144 3143 3142 3139 3137 3136 3135 3133 3132 3130 3128 3127 3126 3126 3125 3123 3122
3147 3151 3153 3155 3156 3157 3158 3159 3159 3160 3159 3159 3159 3160 3160 3159 3158 3156 3151 3154 3154 3151 3149 3146 3143 3141 3139 3137 3135 3134 3132 3130 3128 3127 3126 3124 3122 3121 3119 3119 3118 3118 3117
3147 3150 3151 3152 3154 3155 3155 3156 3156 3156 3157 3156 3156 3157 3155 3155 3155 3154 3153 3147 3142 3139 3140 3143 3140 3136 3134 3131 3129 3127 3126 3124 3122 3120 3119 3118 3116 3114 3111 3110 3109 3108 3108
3146 3148 3149 3150 3152 3152 3153 3154 3154 3155 3155 3155 3153 3153 3153 3151 3152 3150 3147 3146 3145 3144 3135 3133 3133 3130 3129 3127 3124 3122 3120 3119 3117 3114 3112 3110 3110 3108 3106 3104 3100 3098 3096
3144 3146 3146 3149 3149 3150 3151 3151 3152 3152 3152 3151 3151 3148 3147 3148 3146 3144 3142 3140 3138 3136 3137 3132 3127 3123 3122 3120 3118 3117 3116 3114 3111 3109 3107 3104 3101 3098 3097 3096 3095 3091 3089
3142 3143 3144 3146 3146 3147 3148 3149 3149 3149 3148 3148 3147 3146 3141 3140 3140 3138 3137 3136 3135 3133 3128 3124 3124 3121 3115 3113 3110 3109 3112 3109 3106 3102 3099 3097 3095 3091 3087 3085 3084 3083 3079
3140 3141 3141 3143 3143 3144 3146 3145 3145 3145 3143 3145 3143 3142 3140 3135 3132 3135 3133 3130 3128 3126 3124 3120 3114 3112 3110 3109 3105 3100 3102 3102 3099 3095 3092 3089 3087 3084 3080 3076 3073 3071 3069
3137 3138 3138 3140 3140 3140 3141 3140 3140 3139 3139 3137 3139 3138 3135 3134 3130 3127 3123 3119 3116 3113 3113 3113 3110 3106 3103 3101 3099 3095 3095 3092 3089 3086 3083 3081 3078 3074 3071 3068 3065 3061 3057
3133 3135 3136 3136 3136 3135 3136 3135 3136 3135 3135 3130 3130 3131 3128 3128 3127 3125 3125 3119 3113 3108 3104 3101 3099 3098 3096 3093 3089 3085 3086 3085 3081 3077 3074 3071 3068 3064 3060 3056 3052 3049 3046
3129 3130 3130 3131 3132 3130 3129 3131 3130 3130 3130 3129 3126 3124 3123 3120 3119 3117 3113 3114 3111 3107 3101 3097 3093 3089 3084 3083 3081 3077 3076 3076 3073 3068 3065 3062 3056 3051 3048 3044 3039 3035 3032
3125 3125 3125 3124 3125 3125 3123 3123 3124 3124 3122 3122 3120 3119 3117 3114 3112 3108 3104 3101 3097 3095 3093 3091 3088 3084 3079 3074 3071 3067 3064 3065 3064 3059 3055 3051 3045 3040 3035 3030 3026 3022 3020
3121 3121 3120 3119 3120 3119 3117 3117 3117 3116 3116 3114 3113 3111 3109 3107 3105 3101 3098 3095 3090 3087 3084 3083 3080 3076 3072 3067 3062 3058 3055 3052 3052 3048 3044 3039 3034 3028 3023 3018 3014 3011 3009
3115 3115 3114 3113 3112 3109 3111 3110 3110 3109 3107 3106 3105 3103 3103 3101 3098 3092 3088 3084 3080 3077 3076 3073 3070 3067 3064 3060 3055 3048 3042 3038 3035 3033 3029 3026 3021 3017 3012 3007 3003 3002 2999
3108 3107 3107 3105 3102 3100 3103 3103 3102 3101 3100 3097 3097 3095 3094 3093 3089 3084 3078 3075 3071 3067 3064 3062 3060 3059 3056 3052 3047 3041 3036 3030 3025 3021 3017 3014 3009 3005 3001 2996 2994 2992 2990
3100 3099 3098 3095 3093 3092 3094 3094 3093 3092 3091 3090 3089 3087 3085 3083 3079 3073 3070 3066 3062 3058 3052 3053 3050 3047 3044 3040 3036 3031 3025 3020 3014 3010 3007 3002 2999 2995 2991 2987 2985 2983 2982
3093 3092 3089 3082 3084 3084 3087 3086 3085 3085 3083 3081 3080 3078 3075 3072 3067 3064 3062 3058 3054 3050 3044 3041 3039 3037 3032 3028 3024 3020 3014 3009 3005 3001 2997 2992 2988 2984 2980 2978 2977 2975 2974
3087 3085 3081 3083 3081 3081 3081 3079 3077 3075 3076 3074 3072 3068 3065 3061 3059 3056 3051 3048 3046 3043 3037 3030 3027 3023 3019 3015 3011 3007 3003 2999 2995 2990 2988 2983 2980 2975 2973 2971 2968 2967 2965
3080 3078 3078 3077 3078 3076 3072 3070 3070 3069 3067 3066 3063 3059 3057 3054 3052 3048 3045 3042 3038 3033 3028 3022 3016 3014 3009 3005 2999 2996 2993 2986 2983 2980 2978 2975 2971 2968 2964 2962 2960 2959 2958
3074 3073 3072 3070 3068 3069 3067 3066 3064 3062 3059 3056 3054 3052 3049 3046 3043 3041 3037 3033 3029 3024 3019 3012 3006 3001 2996 2993 2988 2984 2981 2978 2974 2971 2970 2968 2965 2962 2958 2953 2952 2951 2949
3068 3067 3065 3062 3063 3061 3058 3058 3055 3052 3050 3048 3046 3042 3040 3037 3035 3031 3026 3022 3017 3012 3007 3001 2995 2989 2984 2981 2977 2972 2967 2965 2964 2962 2960 2959 2957 2954 2949 2946 2944 2942 2941
3059 3059 3056 3056 3053 3051 3050 3049 3046 3043 3041 3039 3036 3034 3032 3029 3026 3021 3016 3011 3005 2999 2992 2986 2980 2974 2971 2969 2967 2963 2958 2957 2954 2954 2951 2950 2947 2945 2942 2940 2937 2935 2933
3051 3050 3047 3047 3045 3043 3040 3039 3037 3035 3032 3030 3027 3025 3022 3019 3015 3010 3004 2999 2994 2988 2981 2974 2968 2964 2960 2959 2956 2953 2950 2947 2946 2945 2943 2940 2939 2934 2933 2931 2929 2927 2926
3043 3041 3040 3039 3037 3034 3031 3030 3029 3026 3024 3021 3018 3016 3011 3007 3003 2997 2991 2986 2981 2976 2968 2961 2955 2952 2948 2946 2945 2942 2940 2938 2938 2936 2934 2929 2929 2925 2924 2923 2921 2920 2919
3035 3033 3032 3030 3028 3025 3023 3022 3020 3018 3015 3011 3008 3004 3000 2995 2991 2986 2979 2974 2968 2963 2957 2949 2942 2937 2935 2935 2934 2933 2931 2929 2928 2928 2926 2921 2920 2916 2915 2915 2915 2913 2912
3026 3025 3024 3022 3019 3015 3014 3012 3011 3007 3004 3000 2997 2993 2989 2984 2979 2973 2967 2960 2954 2949 2941 2934 2929 2925 2925 2924 2924 2923 2923 2921 2920 2919 2920 2914 2912 2909 2907 2908 2908 2907 2905